SL-14 DEB, 45300

Orbit data source: Space-Track

SL-14 DEB, 45300 is space debris in LEO originally from a launch on Thu, 15 Aug 1991 UTC launched from the Plesetsk Missile And Space Complex (PKMTR). Debris objects in space refer to the collection of defunct objects orbiting the Earth. Examples of debris include non-operational satellites, rocket bodies, and fragments generated from explosions, collisions, or faulty payload assembly.

Loading next visibility...
Identifier
45300, 1991-056AN
Orbit
LEO
Country
Flag of CISCIS
Related business
Manufacturer
Unknown
Mission
Spacecraft
Bus & Motor
Unknown
Mass
Unknown
Launch date (UTC)
1991-08-15 (34 years ago)
Launch vehicle
Unknown
Launch site
Plesetsk Missile And Space Complex (PKMTR)
Object type
Payload
Rocket body
Debris
Shape & HBR
Unknown shape, 0.1 m
Radar Cross Section
Small (<0.1 m²)

Expand to show TLE details & history
Last TLE update: 23 hours ago

TLE from 23 hours ago
0 SL-14 DEB
1 45300U 91056AN  25288.66972124  .00000569  00000-0  19502-2 0  9994
2 45300  82.5595  12.6765 0121886 336.1559  23.3932 12.94149009266187
Epoch: 2025-10-15T16:04Z
TLE epoch observation values (Epoch: 2025-10-15T16:04:23.915Z)
Latitude
-0°
Longitude
107.13638°
Altitude
1,202.318 km
Speed
7.293 km/s
True Right ascension
00h 50m 42s
True Declination
0° 00' 00"
Sunlit
Object was in full shadow at epoch
Visualization orbit readout
Latitude
Unknown
Longitude
Unknown
Altitude
Unknown
Speed
Unknown
Apparent Right ascension
Unknown
Apparent Declination
Unknown
Sunlit
N/A
Visualization observer readout
Local Sidereal Time
10:02:19
Azimuth
Unknown
Elevation
Unknown
Doppler factor
Unknown
Orbital elements
Apogee altitude
1,375.748 km
Perigee altitude
1,189.006 km
Semi-major axis
7,660.514 km
Eccentricity
0.01219
Inclination
82.5595°
RAAN
12.6765°
Arg. of periapsis
336.1559°
True anomaly
23.9556°
Mean anomaly
23.3932°
Eccentric anomaly
23.67361°
Mean motion
3.2371 °/min
Orbital period
111.21 mins
BSTAR
0.0019502
Loading maneuver chart data...
Computing Atmospheric mass density...
Loading historical data...
Loading historical data...
Loading historical data...
Loading historical data...
Loading historical data...
Loading historical data...
Loading historical data...

Documentation

Showing up to 5 results
|